Lid_Strength_Index
1 1 1 1 0 0 0 0 0 0 0 0 -0 -0 -0 -0 0 2 6 3 2 -2 1 3 3 4 4 5 5 6 8 9 9 9 8 6 7 6 6 6 6 5 4 4 4
1 1 1 1 0 0 0 0 0 0 0 0 0 0 0 0 3 5 1 -0 -2 -1 4 4 5 5 5 6 5 6 8 9 7 7 8 7 7 6 7 6 5 5 4 5 5
1 1 1 1 1 0 0 0 0 0 0 0 0 0 0 0 6 6 -0 -1 -2 0 3 4 4 5 7 6 6 7 9 7 8 7 8 8 7 6 7 7 5 5 4 4 5
1 1 1 1 1 0 0 0 0 0 0 1 1 1 0 3 9 6 -2 -2 -2 3 4 5 5 7 7 8 7 9 7 7 7 8 8 8 7 8 7 6 4 4 4 4 5
1 1 1 1 1 1 0 0 0 -0 0 0 1 1 3 7 7 1 -2 -1 3 4 5 5 6 7 9 8 8 9 8 8 7 8 8 7 8 8 8 5 4 4 5 5 5
1 1 1 1 1 1 0 0 0 0 0 0 1 1 6 10 5 -0 -0 3 4 4 5 5 6 6 8 9 9 9 9 8 8 8 8 9 8 8 7 6 6 6 6 5 5
1 1 1 1 1 1 0 0 0 0 1 1 1 3 8 8 4 1 3 3 4 4 6 6 6 7 8 9 8 9 10 9 9 9 9 9 10 10 7 7 8 7 6 6 6
2 2 2 2 1 1 1 1 1 1 1 2 1 4 9 6 3 4 5 6 5 6 6 6 6 7 8 8 10 11 11 12 9 11 10 9 12 8 7 8 8 7 7 6 6
2 2 2 1 1 1 1 1 2 1 1 1 4 7 9 5 7 6 6 7 7 7 7 7 7 9 9 11 12 11 14 13 12 10 11 10 12 9 8 9 9 8 8 7 7
2 2 2 2 2 1 1 3 3 3 2 2 5 10 8 9 8 8 7 7 8 8 8 8 9 10 11 12 14 13 14 13 14 10 11 12 12 10 9 9 9 9 8 8 7
2 2 2 2 2 1 4 5 5 6 7 7 7 9 9 8 7 8 7 8 8 9 11 10 12 13 11 10 10 12 13 14 12 11 12 12 12 11 10 9 9 9 8 8 8
2 1 1 1 1 2 4 6 8 8 9 7 8 8 7 7 9 9 7 10 10 11 11 12 13 10 10 11 12 12 13 13 12 11 13 12 13 11 10 10 9 9 9 8 8
3 2 2 2 2 3 5 6 6 7 10 9 9 10 10 9 10 10 9 10 11 13 12 12 10 11 12 12 13 12 14 13 14 12 12 13 13 12 10 10 9 9 9 9 9
3 3 3 2 3 4 6 7 6 7 11 10 12 11 11 10 12 10 10 11 12 13 12 12 11 12 13 13 12 14 11 13 14 15 16 13 17 12 10 10 9 9 10 9 9
4 3 2 3 3 4 6 6 7 9 19 11 13 9 10 12 11 11 9 10 12 13 13 12 13 14 13 12 12 13 13 14 14 15 16 15 16 12 11 12 10 10 10 10 10
4 3 3 3 2 4 5 6 7 12 19 12 12 12 12 11 12 11 11 10 11 13 12 12 12 12 12 12 12 12 13 13 15 15 17 14 15 14 12 12 11 11 11 11 11
5 5 3 2 3 4 4 4 12 17 9 12 12 12 12 12 12 12 12 12 12 13 13 11 11 12 12 13 13 13 14 17 16 17 16 15 15 14 11 11 12 12 12 11 11
5 5 4 2 3 3 4 8 17 12 12 8 10 11 11 10 10 11 10 11 10 11 13 14 15 13 12 12 12 13 13 17 22 19 17 13 16 12 10 12 12 11 11 12 12
6 4 5 3 3 3 6 14 13 11 9 10 10 12 11 10 10 10 11 11 10 10 13 13 14 12 13 12 12 14 15 11 15 15 18 15 12 11 12 12 12 12 12 13 13
7 7 7 3 3 4 10 13 11 8 8 8 13 10 13 11 11 12 11 11 11 11 10 11 16 10 11 12 12 12 11 15 14 21 21 16 14 14 13 14 13 12 13 12 12
7 10 7 2 3 7 13 13 11 8 7 9 10 11 11 12 11 12 11 9 8 8 9 10 12 12 10 12 11 13 14 14 14 16 20 21 15 10 12 13 13 13 13 13 13
8 14 6 2 10 9 12 10 8 9 6 8 8 10 11 10 12 11 11 10 7 8 10 9 12 15 13 8 8 10 11 11 16 17 15 16 15 9 12 13 13 14 14 13 13
10 11 6 4 13 12 9 9 8 8 8 8 9 8 8 10 13 10 10 7 7 8 10 10 13 17 15 12 10 12 11 10 11 12 17 18 16 10 11 14 14 15 15 14 14
10 13 9 7 7 10 11 11 11 7 8 7 8 8 9 10 9 11 10 8 7 8 8 8 12 15 18 15 12 15 13 12 13 17 16 16 15 11 10 11 13 14 14 13 14
10 13 11 12 11 9 8 10 11 11 8 7 9 9 10 12 11 11 9 9 8 9 8 9 14 12 12 11 11 12 13 13 15 13 16 14 14 12 10 14 14 14 14 13 13
11 12 10 11 11 10 9 10 11 10 9 10 10 9 10 11 10 12 10 10 10 10 10 10 13 12 14 11 11 13 13 13 13 13 13 13 13 9 12 12 13 13 14 14 13
9 9 9 12 12 11 11 11 11 10 11 10 10 11 12 10 9 9 9 10 10 11 12 12 13 14 16 12 14 17 15 12 12 11 11 14 12 12 13 12 12 12 11 12 12